GW4641 Weather Reports


time (UTC)temp
F
wind
direction
speed
knots
gust
knots
rain 1hr
in
rain 24hr
in
rain mn
in
humidity
%
barometer
mb
20260906123057 74 354 0.0 0.0 0.00 0.00 0.00 98 1013.5
20260906122556 74 355 0.0 0.0 0.00 0.00 0.00 98 1013.5
20260906122052 73 302 0.0 0.0 0.00 0.00 0.00 98 1013.4
20260906121548 73 3 0.0 0.0 0.00 0.00 0.00 99 1013.6
20260906121044 73 304 0.0 0.0 0.00 0.00 0.00 99 1013.3
20260906120539 73 325 0.0 0.0 0.00 0.00 0.00 99 1013.4
20260906120036 73 327 0.0 0.0 0.00 0.00 0.00 99 1013.0
20260906115531 73 328 0.0 0.0 0.00 0.00 0.00 99 1013.1
20260906115026 73 330 0.0 0.0 0.00 0.00 0.00 99 1013.3
20260906114525 73 337 0.0 0.0 0.00 0.00 0.00 99 1012.9
20260906114021 73 338 0.0 0.0 0.00 0.00 0.00 99 1012.7
20260906113520 73 304 0.0 0.0 0.00 0.00 0.00 99 1012.5
20260906113015 73 327 0.0 0.0 0.00 0.00 0.00 99 1012.3
20260906112510 73 326 0.0 0.0 0.00 0.00 0.00 99 1012.6
20260906112007 73 24 0.0 0.0 0.00 0.00 0.00 99 1012.7
20260906111506 72 300 0.0 0.0 0.00 0.00 0.00 99 1013.0
20260906111001 72 309 0.0 0.0 0.00 0.00 0.00 99 1012.7
20260906110456 72 334 0.0 0.0 0.00 0.00 0.00 99 1012.7
20260906105954 72 335 0.0 0.0 0.00 0.00 0.00 99 1012.4
20260906105451 72 352 0.0 0.0 0.00 0.00 0.00 99 1012.3
20260906104947 72 301 0.0 0.0 0.00 0.00 0.00 99 1012.3
20260906104445 72 301 0.0 0.0 0.00 0.00 0.00 99 1012.2
20260906103944 71 301 0.0 0.0 0.00 0.00 0.00 99 1012.2
20260906103443 71 301 0.0 0.0 0.00 0.00 0.00 99 1012.0
20260906102938 71 301 0.0 0.0 0.00 0.00 0.00 99 1012.3
20260906102432 71 301 0.0 0.0 0.00 0.00 0.00 99 1012.4
20260906101927 71 301 0.0 0.0 0.00 0.00 0.00 99 1012.5
20260906101422 71 301 0.0 0.0 0.00 0.00 0.00 99 1012.5
20260906100918 71 301 0.0 0.0 0.00 0.00 0.00 99 1012.6
20260906100417 71 301 0.0 0.0 0.00 0.00 0.00 99 1012.3
20260906095912 71 301 0.0 0.0 0.00 0.00 0.00 99 1012.3
20260906095408 71 301 0.0 0.0 0.00 0.00 0.00 99 1012.3
20260906094908 71 301 0.0 0.0 0.00 0.00 0.00 99 1012.5
20260906094403 71 301 0.0 0.0 0.00 0.00 0.00 99 1012.2
20260906093859 71 301 0.0 0.0 0.00 0.00 0.00 99 1012.2
20260906093355 71 301 0.0 0.0 0.00 0.00 0.00 98 1012.5
20260906092849 71 301 0.0 0.0 0.00 0.00 0.00 98 1012.4
20260906092344 71 301 0.0 0.0 0.00 0.00 0.00 98 1012.5
20260906091839 71 301 0.0 0.0 0.00 0.00 0.00 98 1012.8
20260906091335 71 301 0.0 0.0 0.00 0.00 0.00 98 1012.7
20260906090832 71 301 0.0 0.0 0.00 0.00 0.00 98 1012.6
20260906090330 71 301 0.0 0.0 0.00 0.00 0.00 98 1012.7
20260906085830 71 301 0.0 0.0 0.00 0.00 0.00 98 1012.7
20260906085329 71 301 0.0 0.0 0.00 0.00 0.00 98 1012.6
20260906084819 71 301 0.0 0.0 0.00 0.00 0.00 98 1012.3
20260906084318 72 301 0.0 0.0 0.00 0.00 0.00 98 1012.5
20260906083813 72 301 0.0 0.0 0.00 0.00 0.00 98 1012.5
20260906083309 72 301 0.0 0.0 0.00 0.00 0.00 98 1012.5
20260906082809 72 301 0.0 0.0 0.00 0.00 0.00 98 1012.3
20260906082306 72 300 0.0 0.0 0.00 0.00 0.00 98 1012.2
20260906081759 72 300 0.0 0.0 0.00 0.00 0.00 97 1012.1
20260906081249 72 301 0.0 0.0 0.00 0.00 0.00 97 1012.2
20260906080745 72 300 0.0 0.0 0.00 0.00 0.00 97 1012.2
20260906080242 72 301 0.0 0.0 0.00 0.00 0.00 97 1012.1
20260906075741 72 300 0.0 0.0 0.00 0.00 0.00 97 1011.9
20260906075241 72 301 0.0 0.0 0.00 0.00 0.00 97 1012.0
20260906074737 72 300 0.0 0.0 0.00 0.00 0.00 97 1012.1
20260906074236 72 300 0.0 0.0 0.00 0.00 0.00 97 1012.1
20260906073736 72 300 0.0 0.0 0.00 0.00 0.00 97 1012.1
20260906073231 72 300 0.0 0.0 0.00 0.00 0.00 97 1012.1
20260906072726 73 300 0.0 0.0 0.00 0.00 0.00 96 1012.2
20260906072222 73 301 0.0 0.0 0.00 0.00 0.00 96 1012.1
20260906071718 73 300 0.0 0.0 0.00 0.00 0.00 96 1012.3
20260906071218 73 300 0.0 0.0 0.00 0.00 0.00 96 1012.0
20260906070714 73 300 0.0 0.0 0.00 0.00 0.00 96 1012.2
20260906070210 73 300 0.0 0.0 0.00 0.00 0.00 96 1012.2
20260906065709 73 300 0.0 0.0 0.00 0.00 0.00 96 1012.3
20260906065205 73 300 0.0 0.0 0.00 0.00 0.00 96 1012.1
20260906064700 73 300 0.0 0.0 0.00 0.00 0.00 95 1012.3
20260906064155 73 300 0.0 0.0 0.00 0.00 0.00 95 1012.1
20260906063650 73 300 0.0 0.0 0.00 0.00 0.00 95 1012.3
20260906063146 73 300 0.0 0.0 0.00 0.00 0.00 95 1012.3
20260906062642 73 300 0.0 0.0 0.00 0.00 0.00 95 1012.2
20260906062140 73 300 0.0 0.0 0.00 0.00 0.00 95 1012.2
20260906061637 73 300 0.0 0.0 0.00 0.00 0.00 95 1012.3
20260906061137 73 300 0.0 0.0 0.00 0.00 0.00 95 1012.5
20260906060633 73 300 0.0 0.0 0.00 0.00 0.00 94 1012.5
20260906060130 73 300 0.0 0.0 0.00 0.00 0.00 94 1012.5
20260906055626 74 300 0.0 0.0 0.00 0.00 0.00 94 1012.4
20260906055121 74 300 0.0 0.0 0.00 0.00 0.00 94 1012.4
20260906054616 74 300 0.0 0.0 0.00 0.00 0.00 94 1012.4
20260906054111 74 300 0.0 0.0 0.00 0.00 0.00 93 1012.3
20260906053608 74 300 0.0 0.0 0.00 0.00 0.00 93 1012.4
20260906053103 74 300 0.0 0.0 0.00 0.00 0.00 93 1012.5
20260906052558 74 300 0.0 0.0 0.00 0.00 0.00 93 1012.6
20260906052055 74 300 0.0 0.0 0.00 0.00 0.00 92 1012.6
20260906051550 75 300 0.0 0.0 0.00 0.00 0.00 92 1012.7
20260906051045 75 300 0.0 0.0 0.00 0.00 0.00 92 1012.5
20260906050535 75 300 0.0 0.0 0.00 0.00 0.00 92 1012.8
20260906050031 75 300 0.0 0.0 0.00 0.00 0.00 91 1012.6
20260906045529 75 300 0.0 0.0 0.00 0.00 0.00 91 1013.1
20260906045024 75 300 0.0 0.0 0.00 0.00 0.00 91 1013.0
20260906044519 75 300 0.0 0.0 0.00 0.00 0.00 90 1012.9
20260906044009 75 300 0.0 0.0 0.00 0.00 0.00 90 1013.1
20260906043505 75 300 0.0 0.0 0.00 0.00 0.00 90 1013.0
20260906043001 75 300 0.0 0.0 0.00 0.00 0.00 89 1013.2
20260906042500 76 300 0.0 0.0 0.00 0.00 0.00 89 1013.3
20260906041959 76 300 0.0 0.0 0.00 0.00 0.00 88 1013.0
20260906041456 76 300 0.0 0.0 0.00 0.00 0.00 88 1013.2
20260906040955 76 300 0.0 0.0 0.00 0.00 0.00 88 1013.1
20260906040450 76 300 0.0 0.0 0.00 0.00 0.00 88 1013.1
20260906035946 77 299 0.0 0.0 0.00 0.00 0.00 88 1012.9
20260906035441 77 301 0.0 0.0 0.00 0.00 0.00 88 1013.2
20260906034936 77 349 0.0 0.0 0.00 0.00 0.00 87 1013.1
20260906034431 77 348 0.0 0.0 0.00 0.00 0.00 87 1013.2
20260906033926 77 350 0.0 0.0 0.00 0.00 0.00 87 1013.1
20260906033421 77 27 0.0 0.0 0.00 0.00 0.00 87 1013.2
20260906032916 77 27 0.0 0.0 0.00 0.00 0.00 87 1013.1
20260906032413 77 27 0.0 0.0 0.00 0.00 0.00 86 1013.1
20260906031907 77 27 0.0 0.0 0.00 0.00 0.00 85 1013.0
20260906031403 77 27 0.0 0.0 0.00 0.00 0.00 85 1013.1
20260906030857 77 27 0.0 0.0 0.00 0.00 0.00 85 1013.2
20260906030352 77 27 0.0 0.0 0.00 0.00 0.00 85 1013.2
20260906025846 78 27 0.0 0.0 0.00 0.00 0.00 84 1013.0
20260906025341 78 27 0.0 0.0 0.00 0.00 0.00 83 1013.0
20260906024840 79 27 0.0 0.0 0.00 0.00 0.00 82 1012.7
20260906024339 79 28 0.0 0.0 0.00 0.00 0.00 82 1012.9
20260906023834 78 27 0.0 0.0 0.00 0.00 0.00 83 1012.8
20260906023330 78 26 0.0 0.0 0.00 0.00 0.00 83 1012.9
20260906022826 78 26 0.0 0.0 0.00 0.00 0.00 82 1013.0
20260906022321 79 26 0.0 0.0 0.00 0.00 0.00 82 1013.0
20260906021816 79 26 0.0 0.0 0.00 0.00 0.00 81 1012.9
20260906021316 79 26 0.0 0.0 0.00 0.00 0.00 80 1012.6
20260906020816 79 26 0.0 0.0 0.00 0.00 0.00 79 1012.7
20260906020315 80 26 0.0 0.0 0.00 0.00 0.00 78 1012.8
20260906015810 81 26 0.0 0.0 0.00 0.00 0.00 77 1012.6
20260906015308 82 26 0.0 0.0 0.00 0.00 0.00 74 1012.4
20260906014803 82 27 0.0 0.0 0.00 0.00 0.00 72 1012.3
20260906014259 82 27 0.0 0.0 0.00 0.00 0.00 72 1012.5
20260906013755 82 17 0.0 0.0 0.00 0.00 0.00 72 1012.7
20260906013255 83 11 0.0 0.0 0.00 0.00 0.00 71 1012.5
20260906012750 83 12 0.0 0.0 0.00 0.00 0.00 71 1012.7
20260906012245 83 298 0.0 0.0 0.00 0.00 0.00 71 1012.8
20260906011740 83 298 0.0 0.0 0.00 0.00 0.00 70 1012.8
20260906011240 83 306 0.0 0.0 0.00 0.00 0.00 70 1012.5
20260906010735 83 316 0.0 0.0 0.00 0.00 0.00 71 1012.7
20260906010232 81 18 0.0 0.0 0.00 0.00 0.00 74 1012.1
20260906005727 82 354 0.0 0.0 0.00 0.00 0.00 74 1011.6
20260906005226 82 317 0.0 0.9 0.00 0.00 0.00 74 1011.2
20260906004725 82 36 0.0 0.0 0.00 0.00 0.00 74 1011.2
20260906004220 82 325 0.0 0.0 0.00 0.00 0.00 73 1011.3
20260906003715 83 325 0.0 0.0 0.00 0.00 0.00 71 1011.0
20260906003211 83 325 0.0 0.0 0.00 0.00 0.00 71 1011.2
20260906002705 83 325 0.0 0.0 0.00 0.00 0.00 71 1011.0
20260906002155 83 325 0.0 0.0 0.00 0.00 0.00 70 1011.1
20260906001650 83 325 0.0 0.0 0.00 0.00 0.00 70 1011.1
20260906001150 84 325 0.0 0.0 0.00 0.00 0.00 69 1011.2
20260906000645 84 325 0.0 0.0 0.00 0.00 0.00 68 1011.2
20260906000141 85 344 0.0 0.0 0.00 0.00 0.00 66 1011.2
20260905235639 85 345 0.0 0.0 0.00 0.00 0.00 65 1011.3
20260905235135 86 3 0.0 0.0 0.00 0.00 0.00 65 1011.7
20260905234630 86 334 0.0 0.0 0.00 0.00 0.00 64 1011.5
20260905234126 86 327 0.0 0.0 0.00 0.00 0.00 64 1011.3
20260905233625 87 310 0.0 0.0 0.00 0.00 0.00 64 1011.4
20260905233120 87 323 0.0 0.0 0.00 0.00 0.00 63 1011.3
20260905232615 87 323 0.0 0.0 0.00 0.00 0.00 63 1011.3
20260905232111 87 342 0.0 0.0 0.00 0.00 0.00 63 1011.0
20260905231606 87 308 0.0 0.0 0.00 0.00 0.00 63 1010.6
20260905231102 88 351 0.9 0.9 0.00 0.00 0.00 63 1010.6
20260905230602 88 351 0.0 0.0 0.00 0.00 0.00 62 1010.7
20260905230101 89 2 0.0 0.9 0.00 0.00 0.00 61 1010.7
20260905225600 89 1 0.0 0.0 0.00 0.00 0.00 60 1010.6
20260905225055 89 349 0.0 0.0 0.00 0.00 0.00 60 1010.8
20260905224550 89 285 0.0 0.0 0.00 0.00 0.00 59 1011.1
20260905224049 90 23 0.0 0.0 0.00 0.00 0.00 58 1011.0
20260905223547 91 13 0.9 0.9 0.00 0.00 0.00 57 1010.9
20260905223043 92 318 0.9 0.9 0.00 0.00 0.00 55 1011.0
20260905222542 93 312 0.9 1.7 0.00 0.00 0.00 55 1010.8
20260905222038 93 307 1.7 2.6 0.00 0.00 0.00 55 1011.0
20260905221534 94 36 0.0 0.9 0.00 0.00 0.00 54 1010.7
20260905221030 95 293 1.7 1.7 0.00 0.00 0.00 51 1010.6
20260905220525 96 325 1.7 1.7 0.00 0.00 0.00 48 1010.4
20260905220021 97 0 0.0 0.9 0.00 0.00 0.00 45 1010.3
20260905215516 97 7 0.0 0.0 0.00 0.00 0.00 44 1010.5
20260905215012 98 334 0.9 0.9 0.00 0.00 0.00 44 1010.3
20260905214507 99 326 0.9 0.9 0.00 0.00 0.00 43 1010.4
20260905214002 99 287 0.0 0.0 0.00 0.00 0.00 42 1010.3
20260905213457 98 315 1.7 1.7 0.00 0.00 0.00 43 1010.5
20260905212952 98 353 0.0 0.0 0.00 0.00 0.00 46 1010.4
20260905212447 97 338 0.9 0.9 0.00 0.00 0.00 45 1010.5
20260905211946 97 309 0.0 0.9 0.00 0.00 0.00 44 1010.2
20260905211437 98 309 0.0 0.0 0.00 0.00 0.00 43 1010.5
20260905210932 99 321 1.7 1.7 0.00 0.00 0.00 42 1010.2
20260905210433 99 322 0.9 1.7 0.00 0.00 0.00 42 1010.4
20260905205932 99 131 0.9 0.9 0.00 0.00 0.00 41 1010.2
20260905205427 99 220 2.6 3.5 0.00 0.00 0.00 41 1010.5
20260905204925 99 5 0.9 0.9 0.00 0.00 0.00 40 1010.6
20260905204422 99 328 0.9 0.9 0.00 0.00 0.00 40 1010.7
20260905203921 99 8 0.9 0.9 0.00 0.00 0.00 40 1010.8
20260905203416 99 304 0.0 0.0 0.00 0.00 0.00 40 1010.8
20260905202911 99 3 0.0 0.0 0.00 0.00 0.00 41 1010.7
20260905202407 99 53 0.0 0.0 0.00 0.00 0.00 41 1010.9
20260905201902 98 289 0.9 0.9 0.00 0.00 0.00 42 1010.8
20260905201357 99 8 0.0 0.0 0.00 0.00 0.00 42 1010.9
20260905200851 98 331 0.0 0.0 0.00 0.00 0.00 42 1011.2
20260905200348 98 316 0.9 0.9 0.00 0.00 0.00 41 1011.0
20260905195845 99 333 0.9 0.9 0.00 0.00 0.00 39 1011.1
20260905195340 100 9 0.0 0.0 0.00 0.00 0.00 38 1011.2
20260905194836 100 16 0.9 0.9 0.00 0.00 0.00 40 1011.2
20260905194337 100 295 0.9 0.9 0.00 0.00 0.00 42 1011.2
20260905193836 99 65 0.0 0.9 0.00 0.00 0.00 43 1011.2
20260905193331 99 353 1.7 1.7 0.00 0.00 0.00 42 1011.3
20260905192827 99 349 0.0 0.9 0.00 0.00 0.00 41 1011.7
20260905192323 99 324 0.9 0.9 0.00 0.00 0.00 40 1011.5
20260905191822 100 324 0.9 0.9 0.00 0.00 0.00 41 1011.4
20260905191320 100 308 0.0 0.9 0.00 0.00 0.00 41 1011.6
20260905190819 100 326 0.9 0.9 0.00 0.00 0.00 43 1011.8
20260905190318 99 278 0.9 1.7 0.00 0.00 0.00 43 1011.8
20260905185817 99 318 0.9 0.9 0.00 0.00 0.00 43 1011.9
20260905185313 99 299 2.6 2.6 0.00 0.00 0.00 44 1011.9
20260905184807 100 7 0.9 1.7 0.00 0.00 0.00 44 1012.2
20260905184305 99 51 0.9 0.9 0.00 0.00 0.00 43 1012.0
20260905183759 99 300 0.9 1.7 0.00 0.00 0.00 43 1012.1
20260905183254 98 291 2.6 2.6 0.00 0.00 0.00 44 1012.2
20260905182754 100 305 0.9 0.9 0.00 0.00 0.00 46 1012.2
20260905182254 99 288 0.0 0.9 0.00 0.00 0.00 48 1012.2
20260905181749 101 62 0.0 0.0 0.00 0.00 0.00 45 1012.5
20260905181249 100 340 0.0 0.0 0.00 0.00 0.00 49 1012.6
20260905180749 99 327 1.7 1.7 0.00 0.00 0.00 46 1012.9
20260905180244 100 350 0.0 0.0 0.00 0.00 0.00 51 1012.7
20260905175739 98 293 0.9 0.9 0.00 0.00 0.00 49 1012.8
20260905175233 98 305 0.0 0.0 0.00 0.00 0.00 50 1012.9
20260905174728 99 13 0.9 2.6 0.00 0.00 0.00 49 1013.0
20260905174224 98 322 0.0 0.0 0.00 0.00 0.00 52 1013.2
20260905173720 99 296 1.7 1.7 0.00 0.00 0.00 50 1013.0
20260905173215 98 245 3.5 3.5 0.00 0.00 0.00 51 1013.0
20260905172709 98 265 1.7 1.7 0.00 0.00 0.00 53 1013.3
20260905172203 96 296 0.0 0.0 0.00 0.00 0.00 54 1013.3
20260905171659 97 11 1.7 2.6 0.00 0.00 0.00 52 1013.4
20260905171155 98 293 0.9 0.9 0.00 0.00 0.00 51 1013.2
20260905170652 97 293 0.9 1.7 0.00 0.00 0.00 55 1013.3
20260905170147 97 303 2.6 2.6 0.00 0.00 0.00 54 1013.5
20260905165646 97 291 1.7 1.7 0.00 0.00 0.00 54 1013.5
20260905165142 97 274 2.6 2.6 0.00 0.00 0.00 54 1013.5
20260905164637 98 297 1.7 1.7 0.00 0.00 0.00 57 1013.5
20260905164136 98 304 0.9 1.7 0.00 0.00 0.00 55 1013.6
20260905163632 97 3 0.0 0.0 0.00 0.00 0.00 56 1013.8
20260905163128 97 14 0.9 0.9 0.00 0.00 0.00 57 1013.8
20260905162624 97 333 0.9 0.9 0.00 0.00 0.00 58 1014.0
20260905162123 97 330 0.0 0.0 0.00 0.00 0.00 59 1014.0
20260905161623 96 344 0.0 0.0 0.00 0.00 0.00 61 1013.9
20260905161121 96 12 0.0 0.0 0.00 0.00 0.00 62 1014.1
20260905160621 95 318 0.0 0.0 0.00 0.00 0.00 63 1014.0
20260905160115 96 334 0.0 0.0 0.00 0.00 0.00 65 1014.0
20260905155609 95 137 0.0 0.0 0.00 0.00 0.00 64 1014.1
20260905155108 94 295 0.9 0.9 0.00 0.00 0.00 64 1014.5
20260905154608 95 331 0.9 1.7 0.00 0.00 0.00 65 1014.5
20260905154104 94 315 0.9 0.9 0.00 0.00 0.00 67 1014.5
20260905153600 95 23 0.0 0.9 0.00 0.00 0.00 67 1014.4
20260905153059 93 253 0.9 1.7 0.00 0.00 0.00 69 1014.5
20260905152554 92 270 0.9 1.7 0.00 0.00 0.00 69 1014.7
20260905152049 93 186 0.9 1.7 0.00 0.00 0.00 69 1014.6
20260905151544 92 184 0.9 1.7 0.00 0.00 0.00 71 1014.5
20260905151040 92 221 0.9 1.7 0.00 0.00 0.00 70 1014.6
20260905150535 91 315 0.0 0.9 0.00 0.00 0.00 74 1014.5
20260905150033 88 350 0.0 0.0 0.00 0.00 0.00 76 1014.6
20260905145526 90 344 0.0 0.0 0.00 0.00 0.00 76 1014.7
20260905145026 89 330 0.0 0.0 0.00 0.00 0.00 76 1014.8
20260905144521 88 249 1.7 2.6 0.00 0.00 0.00 77 1014.7
20260905144020 88 347 0.0 0.9 0.00 0.00 0.00 77 1014.7
20260905143520 88 293 1.7 1.7 0.00 0.00 0.00 76 1014.7
20260905143015 87 237 0.9 0.9 0.00 0.00 0.00 77 1014.9
20260905142513 88 64 0.9 0.9 0.00 0.00 0.00 77 1014.9
20260905142010 87 303 0.9 1.7 0.00 0.00 0.00 78 1015.0
20260905141509 87 31 0.0 0.0 0.00 0.00 0.00 79 1014.9
20260905141006 86 261 0.9 0.9 0.00 0.00 0.00 80 1014.8
20260905140500 86 8 0.0 0.0 0.00 0.00 0.00 80 1014.9
20260905135958 85 0 0.0 0.9 0.00 0.00 0.00 81 1014.7
20260905135455 85 171 0.9 1.7 0.00 0.00 0.00 83 1014.9
20260905134945 84 298 0.9 0.9 0.00 0.00 0.00 84 1015.2
20260905134443 83 278 0.0 0.0 0.00 0.00 0.00 86 1014.9
20260905133942 83 148 0.0 0.9 0.00 0.00 0.00 88 1015.1
20260905133438 82 349 0.0 0.0 0.00 0.00 0.00 90 1015.2
20260905132932 81 275 0.0 0.0 0.00 0.00 0.00 93 1015.3
20260905132427 79 38 0.0 0.0 0.00 0.00 0.00 95 1015.4
20260905131922 78 23 0.0 0.0 0.00 0.00 0.00 97 1015.2
20260905131418 77 23 0.0 0.0 0.00 0.00 0.00 98 1015.3
20260905130918 76 13 0.0 0.0 0.00 0.00 0.00 99 1015.5
20260905130417 75 12 0.0 0.0 0.00 0.00 0.00 99 1015.3
20260905125912 75 290 0.0 0.0 0.00 0.00 0.00 99 1015.4
20260905125407 74 293 0.0 0.0 0.00 0.00 0.00 99 1015.4
20260905124903 74 310 0.0 0.0 0.00 0.00 0.00 99 1015.4
20260905124359 73 338 0.0 0.0 0.00 0.00 0.00 99 1015.4
20260905123859 73 316 0.0 0.0 0.00 0.00 0.00 99 1015.4
20260905123355 72 324 0.0 0.0 0.00 0.00 0.00 99 1015.3